Temp_Advection
nan nan nan nan nan nan nan nan nan nan nan nan nan nan nan nan nan nan nan nan nan nan nan nan nan nan nan nan nan nan nan nan nan nan nan nan nan nan nan nan nan nan nan nan nan
nan -0 -0 -0 -0 -0 -0 -0 -0 -0 -0 -0 -0 -0 -0 -1 -1 -0 0 0 0 -0 -0 -0 -0 -0 -0 -1 0 1 -0 -1 -0 0 0 -0 -0 -2 -0 0 0 -0 0 -0 nan
nan -0 -0 -0 -0 -0 -0 -0 -0 -0 -0 -0 -0 -0 -0 -0 -1 -0 -0 0 0 -0 0 0 -0 -1 -1 -1 -0 0 -0 -0 -0 0 0 0 0 -2 -3 -0 -0 -1 -0 -0 nan
nan -0 -0 -0 -0 -0 -0 -0 -0 -0 -0 -0 -0 -0 -0 -0 -0 -0 -0 0 0 0 0 0 -0 -0 0 -1 -1 -0 -1 -0 -0 -0 -0 -0 0 -0 -1 -1 -2 -1 -1 -1 nan
nan -1 -1 -1 -1 -0 -0 -0 -0 -0 -0 -0 -0 -0 -0 -0 -1 -1 -0 -0 0 0 0 0 -1 -0 -0 -1 -0 0 -1 -1 -1 -0 -0 -0 0 0 -1 -1 -1 -1 -1 -1 nan
nan -0 -0 -0 -1 -1 -1 -0 -0 -0 -0 -0 -0 -0 -0 -1 -1 -0 -0 -0 0 0 0 -0 -1 -1 -0 0 -0 -0 -1 -2 -1 -1 -0 -0 -0 0 -1 -1 -1 -1 -1 -1 nan
nan -1 -1 -0 -0 -0 -1 -1 -0 -0 0 -0 0 0 -1 -4 -0 0 -0 -0 0 0 -0 -1 -1 -1 0 -0 -1 -0 -0 -2 -1 -1 -0 -0 0 0 -0 -2 -1 -2 -1 -1 nan
nan -0 -1 -1 -1 -1 -1 -0 -0 -0 -0 0 0 0 -2 -3 -0 0 0 -0 0 -0 -0 -1 -1 -0 -0 -0 -0 0 -0 -1 -2 -1 -1 1 0 -0 -0 -1 -2 -1 -1 -1 nan
nan -0 -0 -1 -1 -1 -1 -1 -0 0 0 0 0 0 -1 -1 -1 -0 -0 0 0 -0 -0 -1 -0 -0 0 0 -0 -0 -0 -1 -2 -2 0 0 -0 -0 -0 -0 -1 -1 -1 -1 nan
nan -0 -0 -0 -1 -1 -1 -1 -1 0 0 0 0 -0 -3 -2 -0 -0 -0 -0 -0 -0 0 -1 1 1 0 0 -0 -1 -1 -1 -1 -1 -0 0 -0 -0 -0 -0 -0 -0 -0 -0 nan
nan -1 -1 -0 -0 -1 -1 -1 -1 -0 -0 -0 -0 -1 -2 -1 -1 -0 -0 -0 0 2 0 1 1 -0 -1 -2 -2 -0 0 -0 -0 -0 -0 -0 -0 -0 -0 0 -1 0 0 -1 nan
nan -1 -1 -1 -0 -0 -0 -1 -1 -1 -0 -1 -1 -1 -1 -1 -2 -2 -1 0 1 1 -0 0 -1 -2 -1 -0 -0 0 0 -0 -1 -1 0 0 -0 -0 -0 -0 -1 -1 -1 -2 nan
nan -1 -2 -1 -0 -0 -0 -0 -0 -0 -1 -1 -1 -2 -2 -1 -1 -2 -0 0 0 -0 0 -0 -2 -1 0 0 0 0 -0 0 -0 -1 -1 0 -0 -1 -1 -0 1 -2 -1 -1 nan
nan -1 -1 -3 -1 -0 -0 -0 -0 0 -0 -1 -1 -1 -1 -1 -1 -2 -1 0 0 -0 -0 -1 -1 -0 0 -0 1 -0 -0 0 1 1 -0 0 0 -1 -0 -0 1 1 0 -1 nan
nan -0 -1 -1 -2 -1 -1 -0 -0 0 -0 -2 -1 -0 0 -1 -1 -1 -1 1 0 -0 -0 -0 -1 -0 -0 -0 0 -0 -0 0 1 0 -0 0 0 -0 -0 0 0 0 -1 -0 nan
nan 0 -0 -0 -1 -0 -0 -0 -0 0 -1 -2 -1 -0 -1 -0 -0 -1 -1 0 1 1 0 -1 -1 0 -1 -0 0 -0 0 0 0 0 -0 -0 -0 -0 -0 -0 -0 -0 -0 -1 nan
nan 0 0 -1 -1 -0 -0 -0 0 -1 -0 -0 -0 -1 -1 -0 -1 -0 0 1 1 0 -0 -1 -0 -1 0 0 -0 0 0 0 -0 -0 -1 -1 -0 -2 -0 -1 -0 -0 -0 -2 nan
nan -0 -0 -0 -0 0 -0 -0 -0 -1 -1 -1 -1 -1 -1 -1 -0 0 1 0 -0 -0 0 0 -1 -2 -0 1 0 0 -0 -0 -0 -0 -1 -0 -0 -2 -0 -0 0 1 -1 -3 nan
nan -1 -0 -0 0 -0 0 -0 -0 -1 -1 -1 -1 -1 -1 -1 -1 -0 0 -0 0 0 0 -0 -1 -1 -0 -0 1 1 -0 -0 0 0 -0 -0 -1 -1 0 0 -0 2 2 -1 nan
nan -2 0 -0 -0 -0 0 -0 -1 -1 -1 0 -0 -1 -1 -1 -1 -1 -0 -0 -0 -1 0 1 -0 -1 -1 -0 2 0 -0 1 0 0 -0 -1 -0 -0 -0 0 0 0 1 0 nan
nan -1 -0 -0 -0 0 -0 -1 -1 -1 -0 0 0 -0 -0 -0 -1 -1 -0 -1 0 -0 -1 -0 -0 -0 0 1 0 -0 0 -0 -0 0 0 0 -1 -0 -0 -0 -0 0 0 0 nan
nan -1 -0 -0 0 0 -0 -1 -1 -1 -0 -0 0 0 0 -0 -0 -0 -1 -0 -0 0 -0 -0 0 0 -1 -2 0 0 0 1 -0 -0 -0 0 -0 -1 -1 -0 -0 1 1 0 nan
nan -2 -1 0 0 -0 -1 -1 -1 -0 0 0 -0 -0 -0 0 -0 -1 -1 -1 0 0 0 0 -0 -0 -0 -1 -0 0 0 0 -0 0 -0 -0 -0 -0 -1 -1 -1 0 3 5 nan
nan -1 -0 0 0 0 -0 -1 -1 -2 -0 -0 0 -0 0 -0 -0 -1 -1 -1 -0 -0 0 1 0 -0 0 -1 -1 0 -0 0 -0 -0 -1 -0 -0 -0 -0 -0 -1 -1 -3 -10 nan
nan -0 -1 -0 -1 -1 -1 -1 -0 -1 -1 -1 -0 -0 0 0 -0 -1 -1 -2 -1 -0 -0 -0 -0 -1 -1 -0 -0 -1 -0 -0 1 0 -0 1 -1 0 -0 -0 -2 -1 -1 -0 nan
nan -1 -1 -1 -1 -0 -0 -1 -1 -0 -0 0 0 -1 0 0 -0 -0 -0 0 -1 -1 0 -0 0 -1 -1 -1 -0 1 -1 -0 -1 -1 -1 -1 -1 0 0 0 -3 -3 1 -1 nan
nan nan nan nan nan nan nan nan nan nan nan nan nan nan nan nan nan nan nan nan nan nan nan nan nan nan nan nan nan nan nan nan nan nan nan nan nan nan nan nan nan nan nan nan nan
Wind_Speed
15 15 15 15 15 16 16 16 17 16 17 17 18 19 18 20 19 19 19 12 11 12 12 13 16 15 13 23 26 27 5 6 8 7 8 12 6 14 23 23 10 2 20 29 26
16 17 17 17 17 16 16 17 17 17 17 17 18 18 20 21 24 22 14 9 9 13 17 16 15 16 14 23 22 8 3 11 9 4 3 15 5 22 8 17 5 26 30 28 28
17 18 18 18 19 19 19 18 17 17 17 18 18 18 18 20 22 7 6 6 11 12 15 13 13 20 24 25 30 20 5 9 18 9 7 7 16 14 22 3 22 31 33 30 28
17 18 19 20 21 20 20 20 20 19 17 17 18 18 17 16 4 5 8 6 9 12 12 15 16 20 14 9 30 10 20 10 18 19 20 2 7 6 10 13 34 33 34 33 28
19 19 19 20 20 21 22 22 20 20 20 18 17 17 16 11 20 18 13 12 12 13 14 16 17 19 12 15 21 9 15 22 23 23 26 16 5 8 13 23 32 35 34 31 27
20 20 21 21 21 21 21 22 22 21 20 20 18 17 14 12 12 13 16 19 16 13 13 13 13 18 25 19 10 21 26 28 29 27 28 19 7 6 8 30 33 37 34 28 25
20 20 21 23 23 23 23 21 21 22 20 19 18 17 17 29 7 9 16 12 11 10 9 12 14 19 22 11 22 24 14 19 15 22 18 27 4 6 13 30 36 36 34 27 28
21 22 22 22 23 24 25 23 21 20 20 18 18 16 16 25 15 18 21 15 10 11 12 14 18 17 12 15 19 11 10 8 18 19 28 7 7 6 21 24 31 34 35 31 31
24 24 24 23 23 24 23 22 21 20 19 17 16 11 14 13 18 22 19 20 16 12 15 18 15 16 11 6 7 8 11 15 20 22 20 7 5 4 16 27 27 32 33 34 33
26 26 25 24 24 24 22 19 17 18 17 15 15 8 20 23 21 18 22 22 20 18 22 21 16 4 5 3 8 11 7 10 15 19 8 7 8 9 11 27 25 30 35 36 39
27 27 27 25 24 22 21 15 23 6 8 10 12 12 24 27 26 27 23 24 23 25 11 20 5 8 12 14 17 17 17 12 8 9 7 8 3 5 9 6 18 27 35 37 40
27 27 27 24 22 14 12 13 16 16 16 24 26 34 32 33 35 30 20 28 21 14 11 7 11 15 17 19 19 18 12 7 9 11 7 9 9 7 6 10 11 29 31 38 39
29 30 29 26 17 8 14 17 14 18 15 27 35 33 35 30 34 35 27 25 11 14 14 15 15 19 20 20 20 11 6 6 9 14 10 6 7 6 9 8 15 36 39 38 44
27 28 28 29 9 12 11 13 14 20 5 7 10 18 28 38 27 35 35 27 15 18 18 14 21 22 21 18 21 7 6 8 11 8 5 4 5 8 9 11 8 20 33 35 43
25 26 26 24 23 18 13 12 17 13 5 9 12 21 24 24 39 27 36 33 17 15 11 18 22 18 15 15 10 8 8 10 11 8 4 7 2 9 6 10 9 10 31 37 47
26 26 29 22 23 8 11 15 10 1 7 8 19 23 19 26 29 35 31 37 35 19 15 22 30 19 15 17 11 7 5 7 6 3 5 9 5 13 10 11 5 9 21 34 43
27 26 26 26 14 14 12 11 2 4 8 10 10 18 22 12 24 23 25 22 15 13 18 18 21 22 22 16 10 5 3 2 5 4 10 8 5 17 5 11 13 18 30 38 43
30 27 22 18 5 4 5 3 5 9 11 14 22 23 18 16 8 18 18 17 20 18 8 17 18 20 23 17 9 7 7 6 8 6 10 5 8 18 14 7 28 33 34 38 42
30 26 21 1 2 6 5 3 4 6 11 18 24 20 22 20 15 9 9 12 19 22 18 14 18 18 23 22 15 8 8 8 3 6 3 6 11 7 16 16 13 21 30 32 40
31 24 9 5 9 4 3 5 8 19 22 19 19 20 18 17 15 15 8 13 13 13 14 18 11 13 16 16 20 12 9 6 2 4 7 7 6 5 5 10 18 14 22 31 37
22 11 4 5 4 5 3 6 15 25 25 17 18 19 17 17 16 16 7 13 14 14 20 12 7 11 17 20 12 5 10 4 6 6 6 4 6 6 4 10 13 14 24 32 32
6 4 8 5 6 6 7 7 15 20 23 18 15 12 8 11 13 15 18 10 20 17 16 6 5 13 19 22 15 12 12 16 6 8 4 5 6 9 6 6 5 26 31 25 33
11 9 12 10 3 6 12 15 23 11 11 12 12 13 13 10 10 11 17 23 17 16 6 6 4 5 2 9 14 9 9 7 6 5 11 5 5 4 9 10 21 15 21 35 36
6 4 5 13 14 9 12 14 16 25 15 16 9 11 11 12 13 9 15 17 12 26 21 13 6 2 4 7 6 7 6 9 5 4 9 7 6 6 7 9 19 29 34 49 29
2 4 13 4 11 17 15 14 13 17 18 18 10 10 9 9 9 10 16 17 15 25 8 5 6 10 10 9 10 12 12 21 15 7 7 9 9 6 5 8 25 39 36 6 23
5 9 15 17 18 15 14 10 16 14 4 8 10 18 15 9 8 13 13 8 8 15 9 2 3 7 7 10 11 12 10 10 9 13 14 7 9 3 7 16 22 33 31 10 24
9 9 11 11 10 9 6 5 17 17 3 7 12 12 15 13 16 25 22 19 12 8 4 3 2 5 5 7 8 6 17 13 13 19 6 5 5 5 13 17 19 21 23 21 14
Wind_Direction
343 341 340 339 338 336 335 335 335 335 334 333 332 329 328 321 313 301 282 261 270 270 273 287 295 312 309 275 271 269 283 281 302 38 339 158 141 113 135 127 139 64 156 156 149
338 336 334 332 331 329 328 328 328 328 328 327 327 326 327 324 317 304 291 250 257 270 271 276 286 292 274 291 297 286 250 280 297 58 15 305 100 147 116 114 146 100 135 148 150
337 333 330 328 326 325 323 321 319 320 322 322 323 323 323 323 323 328 317 250 246 267 267 259 265 290 295 298 291 294 275 299 305 346 301 330 357 131 129 197 168 143 143 152 156
335 332 331 328 326 322 319 317 316 314 314 316 318 319 321 319 294 328 317 291 269 283 253 228 248 268 285 284 287 302 315 288 298 327 322 314 347 140 186 177 166 164 155 159 159
339 336 332 327 323 321 319 316 313 311 311 309 310 314 320 305 265 287 288 285 278 285 250 219 249 248 267 281 303 336 315 324 322 327 313 304 274 235 122 147 158 156 155 163 163
338 336 333 329 326 322 316 314 312 308 306 305 306 306 308 273 282 269 285 291 274 281 237 219 251 258 268 292 310 308 305 312 308 298 289 290 255 121 105 138 147 151 159 165 172
337 334 331 329 327 323 318 314 307 305 303 299 299 300 286 258 250 268 287 302 249 271 213 228 247 265 288 307 307 306 312 305 296 281 270 276 279 177 170 151 148 155 161 169 178
339 338 334 330 324 321 318 316 310 299 293 293 292 290 268 278 269 235 250 273 264 226 257 260 269 269 282 299 299 300 310 298 282 281 271 237 256 171 177 154 157 160 166 173 179
338 336 335 334 329 324 317 315 311 295 284 279 280 269 266 291 240 229 231 234 238 242 243 254 271 281 288 290 285 264 252 260 271 268 262 163 217 225 183 164 167 163 168 173 170
337 333 333 332 333 328 325 324 315 303 281 275 253 273 256 265 239 234 216 223 224 231 234 245 250 246 275 245 247 252 233 241 247 277 318 198 208 230 250 177 172 167 166 165 163
335 332 330 330 331 331 335 352 1 329 359 267 272 236 279 276 286 231 221 220 219 238 228 224 204 220 232 240 242 254 265 274 284 311 4 306 298 270 298 211 168 161 162 157 161
339 335 329 326 328 335 332 333 325 316 302 290 277 273 267 272 285 279 228 209 212 222 238 256 230 229 237 253 255 257 261 291 320 308 296 283 280 274 275 256 184 165 161 162 158
336 337 334 327 326 322 318 344 335 326 291 281 264 262 255 253 260 262 232 221 206 221 226 227 233 241 235 245 257 260 257 306 281 285 305 305 306 292 255 251 193 169 174 170 160
332 331 338 328 330 319 310 336 336 335 292 274 256 251 240 228 249 247 255 214 223 219 225 237 244 246 252 238 240 222 262 250 259 267 249 253 264 278 242 248 194 159 168 168 165
332 329 331 333 316 319 332 323 334 323 301 296 268 270 234 197 225 238 242 248 248 228 214 239 241 246 249 251 248 232 221 245 270 287 316 290 332 264 258 234 204 183 166 167 172
323 326 319 324 310 334 336 337 326 276 252 272 296 304 307 210 221 234 238 237 238 247 240 234 252 258 256 264 245 214 270 293 295 281 308 248 210 272 258 218 168 168 161 153 164
318 321 311 303 290 305 298 337 290 226 311 282 314 318 315 311 214 217 227 234 216 224 245 257 248 257 264 275 283 159 163 293 316 321 240 242 257 252 246 155 143 146 144 152 162
320 322 306 290 306 244 10 313 248 263 262 292 313 328 316 311 291 223 220 226 241 216 210 233 253 237 257 256 216 206 163 166 222 230 260 291 235 238 203 174 147 148 147 149 159
328 331 318 237 330 98 268 248 256 272 284 310 321 313 319 319 330 313 286 225 223 233 229 234 242 230 239 252 247 249 221 208 211 258 296 254 298 336 123 138 134 135 142 144 155
332 335 26 72 199 159 224 258 280 295 291 299 299 300 312 315 345 7 21 330 359 281 303 210 239 245 260 256 239 206 196 249 328 223 274 291 297 251 280 138 144 148 150 159 155
331 324 181 170 156 213 234 257 289 291 292 290 283 290 305 318 335 332 305 310 15 330 339 330 240 248 232 250 239 262 221 194 156 164 211 239 272 198 29 166 165 156 147 153 159
344 279 180 203 236 224 235 250 267 282 281 286 291 292 284 299 307 315 315 336 329 332 323 303 265 229 264 269 269 248 238 201 152 265 210 185 265 331 304 48 23 147 162 166 169
332 275 247 228 260 273 283 296 308 286 268 292 313 323 326 325 329 297 306 313 331 326 0 331 322 321 293 262 258 241 265 181 170 132 233 160 246 16 356 43 38 59 166 171 168
329 300 253 205 251 275 297 285 312 319 327 340 286 306 318 315 310 311 316 310 353 306 312 302 267 235 233 238 267 165 335 331 187 148 230 223 147 350 11 16 51 62 50 351 148
287 320 357 321 336 323 310 319 312 312 316 349 334 318 271 275 291 301 308 317 331 296 332 70 319 317 307 313 326 63 340 290 286 238 177 228 133 204 197 100 92 89 100 225 298
318 348 337 303 303 307 296 301 302 295 349 330 333 324 321 311 293 298 273 291 266 298 308 102 305 331 307 347 51 84 346 294 347 1 332 103 84 341 37 62 90 119 121 167 279
315 333 338 289 294 292 303 287 298 316 311 312 306 309 316 307 320 315 306 301 267 260 268 118 107 31 323 15 12 51 22 45 48 28 25 74 17 107 59 54 40 66 92 73 59
Height
1548 1546 1543 1541 1539 1536 1534 1532 1531 1529 1527 1525 1523 1520 1518 1515 1514 1511 1509 1510 1510 1510 1510 1508 1506 1504 1503 1501 1498 1496 1506 1506 1490 1481 1478 1473 1472 1481 1480 1476 1483 1489 1492 1499 1506
1548 1545 1543 1540 1539 1536 1534 1531 1530 1528 1526 1524 1521 1519 1517 1513 1509 1505 1505 1506 1508 1509 1508 1508 1504 1504 1503 1498 1493 1492 1500 1489 1477 1472 1473 1469 1468 1475 1478 1482 1488 1489 1496 1502 1505
1547 1544 1542 1540 1538 1535 1533 1530 1528 1526 1525 1523 1521 1518 1516 1512 1508 1503 1502 1503 1506 1507 1506 1507 1506 1505 1502 1498 1490 1488 1494 1479 1474 1472 1470 1469 1468 1470 1477 1484 1482 1487 1494 1502 1504
1546 1543 1541 1538 1536 1533 1531 1529 1527 1524 1523 1521 1519 1517 1515 1513 1513 1503 1502 1503 1504 1503 1504 1505 1505 1505 1502 1499 1489 1493 1482 1477 1474 1472 1469 1468 1469 1469 1469 1470 1477 1483 1489 1498 1502
1545 1543 1540 1537 1534 1531 1529 1527 1525 1522 1520 1519 1517 1515 1514 1512 1504 1502 1502 1501 1501 1500 1500 1502 1504 1504 1501 1494 1490 1489 1481 1478 1476 1471 1469 1469 1467 1467 1468 1468 1476 1483 1491 1498 1501
1543 1541 1538 1535 1532 1529 1526 1524 1522 1520 1518 1516 1514 1513 1512 1509 1500 1501 1500 1499 1499 1498 1498 1500 1500 1501 1499 1495 1493 1487 1483 1479 1474 1471 1468 1467 1465 1465 1469 1470 1478 1484 1490 1496 1500
1542 1539 1536 1533 1529 1526 1523 1520 1518 1516 1514 1513 1512 1510 1508 1497 1499 1498 1497 1497 1496 1495 1496 1498 1500 1500 1497 1494 1491 1488 1490 1481 1474 1468 1465 1464 1465 1466 1465 1468 1475 1480 1485 1492 1497
1542 1538 1534 1530 1527 1523 1520 1517 1514 1511 1510 1509 1508 1506 1499 1491 1493 1493 1495 1494 1495 1496 1496 1496 1497 1497 1496 1495 1493 1494 1492 1501 1472 1466 1458 1463 1480 1460 1461 1464 1471 1475 1480 1486 1493
1539 1535 1532 1528 1524 1519 1516 1512 1509 1506 1504 1504 1504 1503 1495 1488 1485 1485 1489 1491 1493 1494 1495 1495 1495 1495 1496 1500 1507 1497 1511 1498 1478 1458 1455 1456 1466 1455 1458 1461 1464 1468 1474 1480 1488
1536 1534 1530 1526 1521 1517 1512 1508 1504 1501 1500 1499 1499 1504 1489 1482 1482 1482 1484 1486 1489 1491 1492 1493 1493 1496 1498 1505 1527 1508 1499 1489 1483 1459 1453 1455 1458 1452 1451 1456 1458 1463 1468 1475 1481
1536 1532 1527 1523 1520 1516 1509 1505 1506 1500 1500 1497 1493 1487 1482 1479 1480 1479 1480 1482 1484 1486 1489 1487 1498 1507 1497 1490 1484 1482 1482 1482 1468 1456 1461 1462 1458 1452 1448 1453 1455 1459 1464 1469 1476
1534 1530 1525 1521 1518 1515 1511 1509 1510 1510 1496 1492 1487 1482 1482 1479 1478 1475 1476 1478 1479 1481 1479 1488 1495 1482 1480 1476 1477 1476 1481 1479 1464 1456 1458 1460 1459 1449 1447 1448 1450 1455 1460 1466 1473
1532 1528 1524 1519 1516 1514 1512 1511 1510 1506 1498 1486 1478 1474 1471 1474 1468 1467 1471 1471 1474 1479 1477 1484 1476 1470 1471 1473 1474 1473 1475 1474 1478 1462 1454 1458 1467 1456 1446 1443 1445 1448 1452 1461 1466
1532 1527 1523 1515 1516 1513 1510 1509 1508 1506 1502 1478 1463 1453 1460 1461 1459 1461 1461 1466 1467 1472 1472 1473 1464 1463 1463 1466 1464 1480 1459 1461 1465 1474 1496 1456 1505 1466 1449 1444 1442 1443 1449 1457 1464
1530 1526 1523 1520 1516 1512 1512 1509 1507 1506 1529 1464 1452 1448 1446 1454 1448 1453 1455 1458 1460 1462 1467 1469 1463 1459 1460 1456 1451 1464 1453 1460 1462 1473 1472 1468 1488 1469 1447 1449 1443 1438 1443 1450 1457
1527 1524 1518 1519 1513 1512 1508 1508 1508 1516 1517 1468 1452 1448 1445 1445 1446 1448 1451 1453 1453 1455 1455 1455 1452 1450 1449 1444 1443 1443 1452 1459 1463 1474 1505 1475 1480 1466 1453 1441 1435 1433 1438 1447 1456
1524 1520 1516 1513 1511 1511 1510 1509 1517 1520 1475 1465 1458 1449 1443 1439 1438 1440 1444 1447 1455 1471 1468 1455 1451 1444 1443 1449 1441 1442 1464 1506 1514 1513 1506 1463 1479 1454 1429 1421 1421 1428 1433 1442 1451
1519 1514 1510 1507 1508 1508 1509 1512 1521 1490 1479 1465 1458 1452 1451 1437 1431 1432 1437 1444 1437 1445 1460 1469 1476 1446 1435 1442 1452 1448 1462 1503 1518 1516 1491 1457 1477 1441 1416 1413 1419 1425 1432 1439 1448
1514 1507 1502 1503 1506 1507 1512 1518 1502 1489 1476 1471 1466 1462 1454 1439 1439 1432 1435 1433 1431 1432 1453 1459 1456 1433 1432 1430 1433 1449 1461 1450 1476 1472 1489 1471 1446 1415 1408 1416 1422 1427 1431 1437 1444
1512 1506 1501 1500 1505 1508 1511 1509 1496 1486 1482 1477 1481 1467 1465 1449 1449 1446 1446 1434 1437 1425 1430 1430 1455 1429 1423 1424 1423 1432 1433 1466 1475 1497 1506 1476 1464 1459 1425 1428 1423 1430 1430 1435 1443
1514 1510 1504 1504 1506 1508 1511 1500 1488 1481 1477 1475 1472 1467 1460 1458 1454 1454 1449 1437 1438 1430 1423 1429 1429 1436 1422 1426 1436 1433 1437 1442 1454 1469 1493 1497 1478 1428 1423 1421 1422 1425 1429 1435 1446
1514 1511 1504 1505 1507 1501 1499 1490 1481 1476 1471 1468 1463 1460 1459 1455 1457 1456 1454 1442 1432 1434 1437 1430 1436 1443 1432 1414 1411 1416 1425 1429 1468 1474 1468 1472 1471 1433 1420 1416 1418 1421 1425 1432 1439
1514 1509 1500 1504 1506 1499 1491 1483 1476 1466 1466 1464 1462 1458 1455 1458 1466 1452 1446 1437 1434 1435 1437 1436 1442 1457 1435 1424 1409 1416 1412 1419 1431 1444 1460 1480 1469 1428 1429 1422 1425 1428 1430 1429 1433
1517 1509 1501 1500 1498 1497 1494 1486 1477 1468 1465 1463 1460 1459 1460 1461 1455 1458 1448 1438 1436 1434 1433 1431 1439 1443 1459 1440 1420 1417 1419 1415 1428 1456 1445 1449 1449 1441 1438 1438 1436 1437 1438 1440 1424
1518 1510 1510 1503 1500 1497 1491 1485 1481 1477 1468 1468 1466 1462 1462 1468 1462 1459 1449 1442 1438 1436 1432 1437 1448 1437 1426 1416 1413 1417 1421 1417 1425 1427 1440 1432 1445 1443 1438 1439 1443 1443 1447 1469 1461
1520 1518 1514 1509 1503 1497 1490 1488 1480 1474 1472 1472 1473 1465 1459 1463 1459 1461 1450 1450 1447 1438 1436 1435 1447 1442 1432 1416 1424 1428 1427 1414 1418 1422 1420 1422 1439 1442 1434 1434 1442 1448 1448 1455 1463
1521 1519 1518 1509 1503 1498 1490 1486 1484 1477 1471 1470 1469 1468 1465 1455 1452 1448 1442 1439 1437 1437 1437 1438 1445 1453 1450 1432 1424 1442 1442 1427 1430 1430 1436 1448 1450 1443 1437 1442 1444 1448 1447 1450 1458